Current weather by "City, St" or "zip code"  
 

Current Conditions: Quakertown Airport, PA

Fair


73.0 F

Last Updated on Oct 21 2021, 12:55 pm EDT
Humidity: 47%
Wind Speed: SW 6.9 mph
Barometer 30.00 in
Dewpoint: 51.8 F
Visibility: 10.00 mi
Precip: --
Heat Index: NA
Wind Chill: NA
Current conditions at:

Quakertown Airport, PA (KUKT)

Lat: 40.4368 Lon: 75.38016

Local Radar Image active severe weather and emergency alerts image image weather storm and storm spotter reports image weather observation monitoring service image
Local
Radar
Active
Alerts
Storm Reports Obs
Monitoring

Sign-up For Email & Text Message Weather Alert Notification Services



Advertise Here

Observation History for Quakertown Airport, PA


Time Wind
(mph)
Vis
(mi)
Weather Precip (in) Temperature (F) Relative
Humidity
Wind
Chill
(F)
Heat
Index
(F)
Pressure
Air Dwpt altimeter
(in)
sea level
(mb)
Rmks
12:55 pm EDT SW 6.9 10.00 Fair -- 73.0 51.8 47% NA NA 30.00 M
11:55 am EDT S 6.9 10.00 Fair -- 72.0 50.0 47% NA NA 30.02 M
10:55 am EDT SW 5.8 10.00 Fair -- 68.0 50.0 53% NA NA 30.03 M
9:55 am EDT S 4.6 10.00 Fair -- 64.0 51.8 64% NA NA 30.05 M
8:55 am EDT N 0.0 10.00 Fair -- 54.0 50.0 88% NA NA 30.05 M
7:55 am EDT N 0.0 10.00 Fair -- 45.0 44.6 100% NA NA 30.05 M
6:55 am EDT N 0.0 10.00 Fair -- 45.0 44.6 100% NA NA 30.06 M
5:55 am EDT N 0.0 10.00 Fair -- 46.0 46.4 100% NA NA 30.06 M
4:55 am EDT N 0.0 10.00 Fair -- 48.0 48.2 100% NA NA 30.05 M
3:55 am EDT N 0.0 10.00 A Few Clouds -- 48.0 48.2 100% NA NA 30.05 M
2:55 am EDT N 0.0 10.00 Partly Cloudy -- 48.0 48.2 100% NA NA 30.06 M
1:55 am EDT N 0.0 10.00 Fair -- 48.0 48.2 100% NA NA 30.06 M
12:55 am EDT N 0.0 10.00 Fair -- 50.0 50.0 100% NA NA 30.05 M
11:55 pm EDT N 0.0 10.00 Partly Cloudy -- 52.0 51.8 100% NA NA 30.06 M
10:55 pm EDT N 0.0 10.00 Fair -- 52.0 50.0 94% NA NA 30.06 M
9:55 pm EDT N 0.0 10.00 A Few Clouds -- 54.0 51.8 94% NA NA 30.06 M
8:55 pm EDT N 0.0 10.00 Fair -- 57.0 50.0 77% NA NA 30.06 M
7:55 pm EDT W 3.5 10.00 Fair -- 64.0 50.0 60% NA NA 30.06 M
6:55 pm EDT N 0.0 10.00 Fair -- 64.0 50.0 60% NA NA 30.05 M
5:55 pm EDT N 0.0 10.00 Fair -- 70.0 50.0 50% NA NA 30.04 M
4:55 pm EDT SW 6.9 G 13.8 10.00 Fair -- 73.0 50.0 44% NA NA 30.04 M
3:55 pm EDT W 6.9 G 13.8 10.00 Fair -- 73.0 50.0 44% NA NA 30.04 M
2:55 pm EDT W 8.1 G 15.0 10.00 Fair -- 75.0 51.8 44% NA NA 30.04 M
1:55 pm EDT W 10.4 10.00 Fair -- 73.0 51.8 47% NA NA 30.05 M

Regional Weather Observation


Allentown, Lehigh Valley International Airport, PA (KABE)

Fair
73.0 F

Allentown Queen City Municipal Airport, PA (KXLL)

Fair
72.0 F

Quakertown Airport, PA (KUKT)

Fair
73.0 F

Hazleton Municipal Airport, PA (KHZL)

Fair
70.0 F

Pennridge Airport, PA (KCKZ)

Fair
72.0 F

Reading, Reading Regional Airport, PA (KRDG)

Fair
74.0 F

Advertise Here


Advertise Here